www.pogodaiklimat.ru

Погода и климат >> Архив погоды >> Россия >> Сахалинская область >> Оха


ПОГОДА в Оха

  • Прогноз погоды в Оха
  • Монитор погоды в Оха
  • Климат города

АРХИВ ПОГОДЫ в Оха

Время (UTC), дата Ветер
(напр.,м/с)
 
Видим.   Явления Облачность Т
(С)
Тd
(С)
f
(%)
Тe
(С)
Тes
(С)
Комфортность P
(гПа)
Po
(гПа)
Тmin
(С)
Tmax
(С)
R
(мм)
R24
(мм)
S
(см)
09 14.10 ЮЗ 1-2
{6}
20 км {ливн. осадки} 9/9 270 м
[Cb cap]
+0.1 0.0 99 -2 -2 1015.1 1010.3 +3.3 0.9
12 14.10 ЮЗ 1-1
{3}
20 км в посл. час ливневой снег 9/6 300 м
[Cb cap Ci sp]
-0.4 -0.4 100 -3 -3 1015.4 1010.6
18 14.10 ЮЗ 3-4
{5}
20 км в посл. час ливневой снег 8/8 300 м
[Cb cap]
-0.7 -0.8 99 -6 -6 1014.9 1010.1
21 14.10 З 3-4
{6}
20 км {ливн. осадки} 8/8 150 м
[Cb cap]
-0.3 -0.4 99 -5 -5 1014.9 1010.1 -0.7 0.1 1
00 15.10 ЮЗ 3-5
{5}
20 км {ливн. осадки} 8/4 300 м
[Cb cap Ac trans]
+0.8 -0.4 92 -4 -3 1015.1 1010.3
06 15.10 З 4-7
{8}
20 км {ливн. осадки} 9/6 330 м
[Cb cap Ac trans]
+2.9 -1.4 73 -2 -2 1014.9 1010.1
09 15.10 З 2-3
{8}
4000 м слабый ливневой снег 9/9 270 м
[Cb cap]
-0.1 -0.1 100 -4 -4 1016.2 1011.4 +3.5 0.5
12 15.10 ЮЗ 3-5
{7}
20 км {ливн. осадки} 8/4 300 м
[Cb cap Ac trans]
-0.5 -0.8 98 -6 -6 1015.9 1011.1
18 15.10 ЮЗ 3-5
{8}
20 км {ливн. осадки} 8/4 300 м
[Cb cap Ac trans]
-0.5 -1.0 96 -5 -5 1014.5 1009.7
21 15.10 ЮЗ 1-2
{10}
4000 м слабый ливневой снег 8/8 300 м
[Cb cap]
-0.7 -0.7 100 -3 -3 1014.7 1009.9 -2.1 2 3
00 16.10 З 2-4
{4}
20 км {ливн. осадки} 6/4 300 м
[Cb cap Ac trans]
+0.8 -2.9 76 -3 -2 1015.1 1010.3
06 16.10 З 4-6
{9}
4000 м слабый ливневой снег 10/10 180 м
[Cb cap]
-0.3 -0.5 99 -6 -6 1014.4 1009.6
09 16.10 З 1-3
{6}
20 км {ливн. осадки} 9/9 450 м
[Cb cap]
-0.6 -2.0 90 -3 -3 1015.0 1010.2 +2.5 2
12 16.10 З 3-5
{7}
4000 м слабый ливневой снег 10/10 300 м
[Cb cap]
-1.1 -1.1 100 -6 -6 1014.8 1010.0
18 16.10 ЮЗ 3-4
{7}
4000 м слабый ливневой снег 10/10 210 м
[Cb cap]
-1.6 -1.6 100 -7 -7 1013.8 1009.0
21 16.10 ЮЗ 3-5
{6}
20 км {ливн. осадки} 8/8 330 м
[Cb cap]
-2.6 -2.6 100 -8 -8 1014.0 1009.1 -2.7 3 9
00 17.10 З 3-4
{6}
20 км {ливн. осадки} 8/8 400 м
[Cb cap]
+1.6 -1.2 82 -3 -2 1014.5 1009.8
06 17.10 З 3-4
{7}
2000 м слабый ливневой снег 10/10 150 м
[Cb cap]
-1.2 -1.2 100 -6 -6 1015.8 1010.9
09 17.10 ЮЗ 3-4
{5}
20 км в посл. час ливневой снег 6/6 300 м
[Cb cap]
-2.2 -2.2 100 -8 -8 1016.9 1012.0 +1.9 5
12 17.10 ЮЗ 4-5
{6}
20 км {ливн. осадки} 4/4 300 м
[Cb cap]
-2.7 -2.7 100 -9 -9 1016.9 1012.0
18 17.10 З 4-6
{11}
20 км {ливн. осадки} 8/8 330 м
[Cb cap]
0.0 -0.1 99 -6 -6 1016.9 1012.1
21 17.10 СЗ 1-2
{11}
20 км {ливн. осадки} 8/8 400 м
[Cb cap]
-1.9 -1.9 100 -4 -4 1018.3 1013.5 -2.8 2 10
00 18.10 СЗ 3-6
{8}
20 км в посл. час ливневой снег 5/5 300 м
[Cb cap]
+0.5 -0.6 92 -4 -3 1019.2 1014.4 -3.6
06 18.10 СЗ 7-11
{14}
20 км {ливн. осадки} 5/5 300 м
[Cb cap]
+2.0 -1.6 77 -4 -4 1020.5 1015.7
09 18.10 З 3-4
{11}
20 км в посл. час ливневой снег 9/9 500 м
[Cb cap]
+0.8 -1.4 85 -4 -4 1021.4 1016.5 +3.3 0.7
12 18.10 З 2-4
{10}
20 км {ливн. осадки} 4/4 300 м
[Cb cap]
-0.2 -1.5 91 -4 -4 1021.7 1016.9
18 18.10 З 2-3
{6}
20 км 5/5 300 м
[Cb cap]
-1.0 -1.1 99 -5 -5 1021.6 1016.8
21 18.10 ЮЗ 3-5
{5}
20 км 5/5 600 м
[Cb cap]
-2.2 -2.2 100 -8 -8 1021.8 1016.9 -2.3 1 6
00 19.10 З 2-4
{5}
20 км {ливн. осадки} 3/3 300 м
[Cb cap]
+1.6 +0.2 90 -2 -0 1021.8 1017.0
06 19.10 З 4-6
{8}
20 км {ливн. осадки} 3/3 600 м
[Cb cap]
+2.8 -2.6 68 -2 -1 1021.4 1016.6
09 19.10 З 1-1
{6}
20 км 3/1 600 м
[Cb cap Ci fib]
-2.0 -2.6 96 -4 -4 1022.5 1017.7 +4.0 0.4
12 19.10 ЮВ 2-2
{2}
20 км ясно -4.2 -4.3 99 -9 -9 1023.1 1018.2
15 19.10 штиль 0
{2}
20 км ясно -7.2 -7.6 97 -8 -8 1023.9 1019.0
18 19.10 штиль 0
{1}
20 км 3/0
[Ci fib]
-8.2 -8.7 96 -9 -9 1024.5 1019.5
21 19.10 штиль 0
{1}
20 км местами туман поземный 3/3 600 м
[Cb cap]
-9.5 -10.2 95 -10 -10 1024.9 1019.9 -9.6 1
00 20.10 штиль 0
{1}
20 км 10/3 600 м
[Cu hum Cs]
-1.5 -1.7 99 -3 -2 1025.6 1020.7 -10.0
06 20.10 ЮВ 3-4
{7}
20 км 10/4 300 м
[Sc Cs]
+3.7 -3.1 61 0 +1 1024.6 1019.8
09 20.10 ЮВ 2-2
{4}
20 км 8/4 300 м
[Sc Ci sp]
-0.5 -3.2 82 -4 -4 1025.0 1020.1 +4.4
12 20.10 ЮВ 1-2
{2}
20 км 6/3 300 м
[Sc Ci sp]
-2.7 -3.1 97 -5 -5 1025.0 1020.1
15 20.10 штиль 0
{2}
20 км 4/0
[Ci fib]
-5.0 -5.1 99 -6 -6 1024.1 1019.2
18 20.10 штиль 0
{1}
20 км 8/0
[Ac trans Ci sp]
-3.9 -4.0 99 -5 -5 1023.2 1018.2
21 20.10 ЮВ 4-7
{7}
20 км {ливн. осадки} 8/8 480 м
[Cb cap]
+3.1 +2.8 98 -2 -2 1021.2 1016.4 -5.7 0.0 0
00 21.10 ЮВ 5-8
{11}
20 км слабый ливневой дождь 10/10 540 м
[Cb cap]
+5.0 +3.6 91 0 0 1019.5 1014.8
06 21.10 ЮВ 7-11
{12}
20 км слабый ливневой дождь 10/10 300 м
[Cb cap]
+5.9 +5.5 97 +1 +1 1011.8 1007.2

 

Местоположение метеостанции Оха (Сахалинская область, Россия): широта 53.50 долгота 142.90 высота над уровнем моря 37 м.

В архиве по умолчанию представлена погода в Оха за последнюю неделю. Архивные данные за месяц целиком и за предыдущие месяцы, начиная с января 2011 года, Вы можете получить, выбрав интересующий диапазон дат из раскрывающегося списка и нажав кнопку "Ввод!".

Внимание! Время в таблицах - всемирное. Для получения местного времени необходимо прибавить поправку, которая в Оха равна 11 ч.

Смотрите также архив погоды в соседних городах и на ближайших метеорологических станциях:

Погода в Одопту (Сахалинская область, Россия) (23 км)
Погода в Москальво (Сахалинская область, Россия) (28 км)
Погода в Ныврово (Сахалинская область, Россия) (94 км)
Погода в Байдукове (Хабаровский край, Россия) (102 км)
Погода в Вал (Сахалинская область, Россия) (130 км)
Погода в Джаоре (Хабаровский край, Россия) (146 км)
Погода в Николаевск-на-Амуре (Хабаровский край, Россия) (151 км)
Погода в Погибях (Сахалинская область, Россия) (167 км)
Погода в Ногликах (Сахалинская область, Россия) (176 км)
Погода в Литке (Хабаровский край, Россия) (178 км)

Пояснения к столбцам:

Ветер - указаны скорость ветра в м/с - средняя за 10 мин, порывы в срок и между сроками (в фигурных скобках) и направление, откуда дует ветер: С - северный, СВ - северо-восточный, В - восточный, ЮВ - юго-восточный, Ю - южный, ЮЗ - юго-западный, З - западный, СЗ - северо-западный.
Видимость - горизонтальная дальность видимости в метрах или километрах. При видимости от 1 до 10 км при отсутствии осадков обычно наблюдается дымка, при ухудшении видимости до 1 км и менее - туман. В сухую погоду видимость может ухудшаться дымом, пылью или мглою.
Явления - указаны атмосферные явления, наблюдавшиеся в срок или в последний час перед сроком; фигурными скобками обозначены явления, наблюдавшиеся между сроками (за 1-3 часа до срока); квадратными скобками обозначены град или гололедные отложения с указанием их диаметра в мм.
Облачность - указаны через наклонную черту общая и нижняя облачность в баллах и высота нижней границы облаков в метрах; квадратными скобками обозначены формы облаков: Ci - перистые, Cs - перисто-слоистые, Cc - перисто-кучевые, Ac - высококучевые, As - высокослоистые, Sc - слоисто-кучевые, Ns - слоисто-дождевые, Cu - кучевые, Cb - кучево-дождевые. Подробнее классификацию облаков см. в Атласе облаков (PDF).
T - Температура воздуха - температура, измеренная на высоте 2 м над землей.
Td - Температура точки росы - температура, при понижении до которой содержащийся в воздухе водяной пар достигнет насыщения.
f - Относительная влажность воздуха - влажноcть воздуха, измеренная на высоте 2 м над землей.
Te - Эффективная температура - температура, которую ощущает одетый по сезону человек в тени. Характеристика душности погоды. При расчете учитывается влияние влажности воздуха и скорости ветра на теплоощущения человека.
Tes - Эффективная температура на солнце - температура, которую ощущает человек, с поправкой на солнечный нагрев. Характеристика знойности погоды. Зависит от высоты солнца над горизонтом, облачности и скорости ветра. Ночью, в пасмурную погоду, а также при ветре 12 м/с и более поправка равна нулю.
P - Атмосферное давление - приведенное к уровню моря атмосферное давление.
Po - Атмосферное давление - измеренное на уровне метеостанции атмосферное давление.
Tmin - Минимальная температура - минимум температуры воздуха на высоте 2 м над землей.
Tmax - Максимальная температура - максимум температуры воздуха на высоте 2 м над землей.
R - Количество осадков - Количество выпавших осадков за период времени, мм. При наведении курсора мыши на число - период времени, за который выпало указанное количество осадков.
R24 - Количество осадков - Количество выпавших осадков за 24 часа, мм.
S - Снежный покров - Высота снежного покрова, см. При наведении курсора мыши на число - состояние снежного покрова и степень покрытия местности в баллах.